Terminal Aerodrome Forecast
Issued by NWS Wilmington, NC

Home | Current Version | Previous Version | Text Only | Print | Product List | Glossary On
Versions: 1 2 3 4 5 6 7 8 9 10 11 12 13
000
FTUS42 KILM 311100
TAFFLO
TAF
KFLO 311120Z 3112/0112 01008KT P6SM SKC
     FM311900 28007KT P6SM FEW250
     FM010000 VRB02KT P6SM FEW120 SCT200=

USA.gov is the U.S. government's official web portal to all federal, state and local government web resources and services.